Weather History for Charlotte, NC

Change the Weather History Date:

Sunday, March 16, 2014

  Actual Average Record
Temperature  
Mean Temperature 49 °F 51 °F  
Max Temperature 55 °F 63 °F 83 °F (1945)
Min Temperature 42 °F 39 °F 18 °F (1970)
Degree Days  
Heating Degree Days 16 14  
Month to date heating degree days 278 256  
Since 1 July heating degree days 2954 2955  
Cooling Degree Days 0 0  
Month to date cooling degree days 0 0  
Year to date cooling degree days 1 0  
Moisture  
Dew Point 44 °F    
Average Humidity 75    
Maximum Humidity 100    
Minimum Humidity 50    
Precipitation  
Precipitation 1.15 in 0.13 in 1.84 in (1923)
Month to date precipitation 3.48 2.16  
Year to date precipitation 10.40 8.89  
Snow  
Snow 0.00 in 0.00 in T in (1978)
Month to date snowfall T 0.4  
Since 1 July snowfall 9.3 4.1  
Snow Depth 0.00 in    
Sea Level Pressure  
Sea Level Pressure 29.89 in    
Wind  
Wind Speed 7 mph (ENE)    
Max Wind Speed 18 mph    
Max Gust Speed 24 mph    
Visibility 5 miles    
Events Rain    
T = Trace of Precipitation, MM = Missing Value Source: NWS Daily Summary

Daily Weather History Graph

Daily Weather History Graph

Search for Another Location

Airport:

Trip Planner

Search our weather history database for the weather conditions in past years. The results will help you decide how hot, cold, wet, or windy it might be!

Date:

Astronomy

Mar. 16, 2014 Rise Set
Actual Time 7:33 AM EDT 7:32 PM EDT
Civil Twilight 7:07 AM EDT 7:57 PM EDT
Nautical Twilight 6:38 AM EDT 8:27 PM EDT
Astronomical Twilight 6:08 AM EDT 8:56 PM EDT
Moon 7:46 PM EDT (3/16) 7:16 AM EDT (3/16)
Length of Visible Light 12h 49m
Length of Day
11h 59m
Full, 100% of the Moon is Illuminated
Mar 16
Full
Mar 16
Full
Mar 23
Last Quarter
Mar 30
New
Apr 7
First Quarter

Hourly Weather History & Observations

Time (EDT) Temp. Windchill Dew Point Humidity Pressure Visibility Wind Dir Wind Speed Gust Speed Precip Events Conditions
12:52 AM 53.1 °F - 36.0 °F 52% 30.01 in 10.0 mi Calm Calm - N/A   Overcast
1:52 AM 48.9 °F - 37.9 °F 66% 30.01 in 10.0 mi South 4.6 mph - N/A   Overcast
2:52 AM 52.0 °F - 37.0 °F 57% 30.01 in 10.0 mi ESE 3.5 mph - N/A   Overcast
3:52 AM 53.1 °F - 37.9 °F 57% 29.99 in 10.0 mi Calm Calm - N/A   Overcast
4:52 AM 52.0 °F - 37.9 °F 59% 29.99 in 10.0 mi South 3.5 mph - N/A   Overcast
5:52 AM 52.0 °F - 39.9 °F 63% 29.95 in 10.0 mi ENE 3.5 mph - N/A   Overcast
6:52 AM 54.0 °F - 39.0 °F 57% 29.96 in 10.0 mi ENE 3.5 mph - N/A   Overcast
7:52 AM 53.1 °F - 39.9 °F 61% 29.96 in 10.0 mi SSE 6.9 mph - N/A   Overcast
8:52 AM 54.0 °F - 39.9 °F 59% 29.96 in 10.0 mi ESE 5.8 mph - N/A   Overcast
9:52 AM 54.0 °F - 44.1 °F 69% 29.97 in 9.0 mi South 4.6 mph - 0.00 in Rain Light Rain
10:52 AM 51.1 °F - 46.0 °F 83% 29.99 in 7.0 mi ESE 4.6 mph - 0.04 in Rain Light Rain
11:17 AM 51.8 °F - 48.2 °F 88% 29.99 in 5.0 mi Calm Calm - 0.01 in Rain Rain
11:52 AM 52.0 °F - 48.9 °F 89% 29.98 in 4.0 mi Calm Calm - 0.05 in Rain Light Rain
12:40 PM 51.8 °F - 50.0 °F 94% 29.95 in 3.0 mi ENE 10.4 mph - 0.11 in Rain Rain
12:52 PM 51.1 °F - 50.0 °F 96% 29.96 in 3.0 mi ENE 3.5 mph - 0.14 in Rain Rain
1:11 PM 51.8 °F - 50.0 °F 94% 29.94 in 3.0 mi East 8.1 mph - 0.03 in Rain Rain
1:52 PM 51.1 °F - 50.0 °F 96% 29.91 in 3.0 mi East 10.4 mph 17.3 mph 0.13 in Rain Rain
1:56 PM 51.8 °F - 50.0 °F 94% 29.90 in 2.0 mi East 13.8 mph 17.3 mph 0.01 in Rain Rain
2:52 PM 51.1 °F - 50.0 °F 96% 29.86 in 2.0 mi ENE 5.8 mph - 0.10 in Rain Rain
3:52 PM 50.0 °F - 48.9 °F 96% 29.82 in 2.0 mi ENE 13.8 mph - 0.12 in Rain Rain
4:04 PM 50.0 °F - 48.2 °F 94% 29.80 in 1.8 mi ENE 13.8 mph - 0.03 in Rain Rain
4:52 PM 48.9 °F - 48.0 °F 97% 29.79 in 1.5 mi East 12.7 mph - 0.12 in Rain Rain
5:33 PM 48.2 °F - 46.4 °F 93% 29.78 in 2.0 mi ENE 11.5 mph - 0.06 in Rain Rain
5:52 PM 48.0 °F - 46.9 °F 96% 29.78 in 2.0 mi ENE 11.5 mph - 0.10 in Rain Rain
6:52 PM 48.0 °F - 46.0 °F 93% 29.77 in 1.8 mi NE 9.2 mph - 0.07 in Rain Light Rain
7:13 PM 46.4 °F 41.9 °F 46.4 °F 100% 29.77 in 2.0 mi NE 9.2 mph - 0.02 in Rain Light Rain
7:52 PM 46.9 °F - 46.0 °F 97% 29.78 in 2.0 mi NNE 10.4 mph - 0.08 in Rain Rain
8:52 PM 46.0 °F 40.2 °F 45.0 °F 96% 29.79 in 2.0 mi North 12.7 mph 19.6 mph 0.06 in Rain Rain
9:52 PM 46.0 °F 41.9 °F 45.0 °F 96% 29.80 in 2.0 mi NNE 8.1 mph - 0.08 in Rain Light Rain
10:52 PM 45.0 °F 39.3 °F 44.1 °F 97% 29.81 in 2.0 mi NNE 11.5 mph - 0.01 in   Overcast
11:14 PM 44.6 °F 39.2 °F 42.8 °F 93% 29.82 in 8.0 mi North 10.4 mph - 0.00 in Rain Light Rain
11:34 PM 44.6 °F 38.8 °F 42.8 °F 93% 29.82 in 3.0 mi North 11.5 mph - 0.03 in Rain Light Rain
11:52 PM 43.0 °F 36.4 °F 42.1 °F 97% 29.81 in 4.0 mi NNE 12.7 mph - 0.04 in Rain Light Rain